Location: Raitis
(47.2167°N, 11.3833°E)
Time: 18:02:28
(UTC+00:00)

Cosmos 1943 Rocket - Pass Details

Date: 03 March 2021
Orbit: 811 x 844 km, 71.0° (Epoch: 19 April)

Event Time Altitude Azimuth Distance (km) Brightness Sun altitude
Rises 20:44:01 0° 336° (NNW) 3,414 6.1 -36.6°
Reaches altitude 10° 20:46:37 10° 343° (NNW) 2,475 5.1 -36.9°
Enters shadow 20:48:43 22° 355° (N) 1,781 4.2 -37.2°
